Dati Storici

Data ora Umidita' aria (%) Temperatura aria (°C) Rad globale (W/m²) Gonioanemometro (°) Tacoanemometro (m/s) Pioggia (mm)
19-06-2020 22:10 97.4 % 16.623 21.065 0.584 0 0
19-06-2020 22:00 94.8 % 16.904 346.909 -0.003 0 0
19-06-2020 21:50 94.2 % 17.094 14.056 -0.006 0 0
19-06-2020 21:40 93.6 % 17.464 56.433 -0.004 0 0
19-06-2020 21:30 94.9 % 17.598 13.397 -0.007 0 0
19-06-2020 21:20 93 % 17.218 324.753 -0.008 0 0
19-06-2020 21:10 93.4 % 17.316 -0.188 -0.008 0 0
19-06-2020 21:00 92.5 % 17.59 27.078 -0.007 0 0
19-06-2020 20:50 94.1 % 17.378 45.965 -0.003 0 0
19-06-2020 20:40 92.2 % 17.345 7.657 -0.007 0 0
19-06-2020 20:30 90.8 % 17.632 40.437 0.387 0 0
19-06-2020 20:20 91.4 % 17.498 10.297 -0.005 0 0
19-06-2020 20:10 92.1 % 17.535 103.826 1.195 0 0
19-06-2020 20:00 94.6 % 17.475 121.431 1.017 0 0
19-06-2020 19:50 97.6 % 16.923 18.206 0.972 0 0
19-06-2020 19:40 97.1 % 16.633 86.595 0.988 0 0
19-06-2020 19:30 96.7 % 16.831 47.866 -0.001 0 0
19-06-2020 19:20 97.6 % 16.643 56.493 2.482 0 0
19-06-2020 19:10 97.6 % 16.766 66 1.555 0 0
19-06-2020 19:00 97.6 % 16.696 15.599 0.801 0 0

I dati sono presentati in modo automatico a scopo informativo. In seguito a verifica i dati possono subire modifiche o essere invalidati e non riportati negli archivi definitivi.